Flight Information

DEPARTURE
SAN BERNARDINO, CA
Elevation:
1159
Runways:
6/24 - 10000x200 - CONC-E
ATIS:
124.175
Ground:
121.8
Tower:
119.45
DESTINATION
,
Elevation:
TPA:
1000 (est.)


6736 NM74° True-14° Var60° HDG

Flight Plan:
(click to file on line)

1. Type
2. Aircraft Identification
3. Aircraft Type / Special Equipment
4. True Airspeed
kts
5. Departure Airport
(ICAO code)
6. Arriving Airport
(ICAO code)
7. Cruising Altitude
ft
8. Alternate Airport
(ICAO code)
9. Route of Flight
10. Remarks


00:00:00 Departure ATIS: Destination ATIS:

Clearance Limit:
Route:
Altitude: Expect in minutes
Frequency:
Transponder: (7500 Hijack / 7600 Lost Comms / 7700 Emergency)


KSBD 281120Z AUTO 05003KT 10SM CLR 18/14 A2990 RMK AO2 T01780136
Time: 2020-09-28T11:20:00Z
1601292101
Winds: 50 @ 3 kts
Visibility: 10.0 sm
Clouds (AGL): CLR
Temperature: 17.8 C
Dew Point: 13.6 C
Pressure: 29.899607 in Hgbr


Notes:

Data extracted from FAA Digital Chart Supplement. Effective: 0901Z Thursday, Sep 10, 2020 to 0901Z Thursday, Nov 5, 2020
Current ATIS data is provided courtisy of PilotEdge.